• en France
  • Liste des pays
  • À 7 jours
  • Température de l'eau
  • Carte satellitaire
  • Carte météo
  • Widgets météo
  • user-avatar
    Se connecter

    Météo par heure à Mendoza

    Ce jour, 25 Septembre, Mardi

    Heure Température Précipitation Vent Pression Humidité
    00:00 +17°C° 0 mm 3 m/s 696 mmHg 40%
    01:00 +17°C° 0 mm 3 m/s 696 mmHg 42%
    02:00 +16°C° 0 mm 3 m/s 696 mmHg 44%
    03:00 +16°C° 0 mm 3 m/s 695 mmHg 45%
    04:00 +16°C° 0 mm 3 m/s 695 mmHg 46%
    05:00 +16°C° 0 mm 3 m/s 696 mmHg 44%
    06:00 +17°C° 0 mm 3 m/s 696 mmHg 42%
    07:00 +18°C° 0 mm 3 m/s 696 mmHg 41%
    08:00 +20°C° 0 mm 3 m/s 696 mmHg 38%
    09:00 +21°C° 0 mm 3 m/s 696 mmHg 35%
    10:00 +24°C° 0 mm 3 m/s 696 mmHg 32%
    11:00 +24°C° 0 mm 3 m/s 696 mmHg 30%
    12:00 +25°C° 0 mm 3 m/s 696 mmHg 29%
    13:00 +26°C° 0 mm 3 m/s 695 mmHg 27%
    14:00 +26°C° 0 mm 4 m/s 695 mmHg 27%
    15:00 +27°C° 0 mm 4 m/s 695 mmHg 26%
    16:00 +27°C° 0 mm 4 m/s 695 mmHg 26%
    17:00 +26°C° 0 mm 4 m/s 695 mmHg 29%
    18:00 +25°C° 0 mm 3 m/s 695 mmHg 32%
    19:00 +24°C° 0 mm 3 m/s 696 mmHg 35%
    20:00 +22°C° 0 mm 4 m/s 696 mmHg 36%
    21:00 +21°C° 0 mm 4 m/s 696 mmHg 38%
    22:00 +21°C° 0 mm 4 m/s 696 mmHg 40%
    23:00 +20°C° 0 mm 4 m/s 696 mmHg 43%

    Demain, 26 Septembre, Mercredi

    Heure Température Précipitation Vent Pression Humidité
    00:00 +19°C° 0 mm 4 m/s 696 mmHg 45%
    01:00 +17°C° 0 mm 5 m/s 695 mmHg 48%
    02:00 +17°C° 0 mm 5 m/s 695 mmHg 50%
    03:00 +16°C° 0 mm 5 m/s 695 mmHg 51%
    04:00 +16°C° 0 mm 5 m/s 695 mmHg 53%
    05:00 +16°C° 0 mm 5 m/s 695 mmHg 52%
    06:00 +17°C° 0 mm 5 m/s 696 mmHg 52%
    07:00 +17°C° 0 mm 5 m/s 696 mmHg 51%
    08:00 +19°C° 0 mm 6 m/s 697 mmHg 49%
    09:00 +20°C° 0 mm 6 m/s 697 mmHg 48%
    10:00 +21°C° 0 mm 6 m/s 697 mmHg 47%
    11:00 +22°C° 0 mm 6 m/s 697 mmHg 47%
    12:00 +22°C° 0 mm 6 m/s 696 mmHg 47%
    13:00 +23°C° 0 mm 7 m/s 696 mmHg 47%
    14:00 +22°C° 0 mm 6 m/s 696 mmHg 50%
    15:00 +21°C° 0 mm 6 m/s 695 mmHg 54%
    16:00 +20°C° 0 mm 6 m/s 695 mmHg 58%
    17:00 +19°C° 0 mm 6 m/s 695 mmHg 63%
    18:00 +17°C° 0 mm 5 m/s 696 mmHg 68%
    19:00 +16°C° 0 mm 5 m/s 696 mmHg 74%
    20:00 +16°C° 0 mm 5 m/s 697 mmHg 74%
    21:00 +17°C° 0 mm 4 m/s 697 mmHg 75%
    22:00 +15°C° 0 mm 4 m/s 697 mmHg 76%
    23:00 +15°C° 0 mm 4 m/s 696 mmHg 75%

    Après-demain, 27 Septembre, Jeudi

    Heure Température Précipitation Vent Pression Humidité
    00:00 +15°C° 0 mm 4 m/s 696 mmHg 74%
    01:00 +14°C° 0 mm 4 m/s 696 mmHg 74%
    02:00 +14°C° 0 mm 4 m/s 695 mmHg 73%
    03:00 +14°C° 0 mm 3 m/s 695 mmHg 72%
    04:00 +14°C° 0 mm 3 m/s 695 mmHg 72%
    05:00 +16°C° 0 mm 3 m/s 695 mmHg 70%
    06:00 +16°C° 0 mm 3 m/s 696 mmHg 69%
    07:00 +16°C° 0 mm 3 m/s 696 mmHg 68%
    08:00 +17°C° 0 mm 3 m/s 696 mmHg 64%
    09:00 +19°C° 0 mm 3 m/s 696 mmHg 61%
    10:00 +20°C° 0 mm 3 m/s 696 mmHg 58%
    11:00 +21°C° 0 mm 3 m/s 695 mmHg 52%
    12:00 +22°C° 0 mm 4 m/s 695 mmHg 47%
    13:00 +25°C° 0 mm 4 m/s 694 mmHg 41%
    14:00 +25°C° 0 mm 4 m/s 694 mmHg 40%
    15:00 +25°C° 0 mm 4 m/s 694 mmHg 39%
    16:00 +26°C° 0 mm 4 m/s 694 mmHg 38%
    17:00 +25°C° 0 mm 4 m/s 694 mmHg 41%
    18:00 +24°C° 0 mm 3 m/s 695 mmHg 44%
    19:00 +22°C° 0 mm 3 m/s 695 mmHg 47%
    20:00 +22°C° 0 mm 3 m/s 695 mmHg 48%
    21:00 +21°C° 0 mm 3 m/s 695 mmHg 49%
    22:00 +21°C° 0 mm 3 m/s 695 mmHg 50%
    23:00 +20°C° 0 mm 3 m/s 695 mmHg 52%

    28 Septembre, Vendredi

    Heure Température Précipitation Vent Pression Humidité
    00:00 +19°C° 0 mm 3 m/s 694 mmHg 54%
    01:00 +19°C° 0 mm 3 m/s 694 mmHg 56%
    02:00 +18°C° 0 mm 3 m/s 694 mmHg 58%
    03:00 +18°C° 0 mm 3 m/s 693 mmHg 60%
    04:00 +18°C° 0 mm 3 m/s 693 mmHg 62%
    05:00 +18°C° 0 mm 3 m/s 694 mmHg 60%
    06:00 +19°C° 0 mm 3 m/s 694 mmHg 58%
    07:00 +20°C° 0 mm 3 m/s 695 mmHg 56%
    08:00 +22°C° 0 mm 3 m/s 695 mmHg 47%
    09:00 +25°C° 0 mm 4 m/s 695 mmHg 39%
    10:00 +27°C° 0 mm 5 m/s 695 mmHg 31%
    11:00 +29°C° 0 mm 5 m/s 694 mmHg 27%
    12:00 +30°C° 0 mm 5 m/s 694 mmHg 23%
    13:00 +33°C° 0 mm 6 m/s 694 mmHg 18%
    14:00 +33°C° 0 mm 6 m/s 693 mmHg 17%
    15:00 +33°C° 0 mm 7 m/s 693 mmHg 15%
    16:00 +33°C° 0 mm 8 m/s 693 mmHg 13%
    17:00 +30°C° 0 mm 7 m/s 693 mmHg 15%
    18:00 +28°C° 0 mm 6 m/s 693 mmHg 17%
    19:00 +27°C° 0 mm 5 m/s 693 mmHg 19%
    20:00 +26°C° 0 mm 5 m/s 693 mmHg 20%
    21:00 +25°C° 0 mm 4 m/s 693 mmHg 21%
    22:00 +23°C° 0 mm 4 m/s 692 mmHg 21%
    23:00 +23°C° 0 mm 4 m/s 692 mmHg 23%

    29 Septembre, Samedi

    Heure Température Précipitation Vent Pression Humidité
    00:00 +22°C° 0 mm 4 m/s 691 mmHg 25%
    01:00 +22°C° 0 mm 5 m/s 691 mmHg 27%
    02:00 +21°C° 0 mm 4 m/s 690 mmHg 27%
    03:00 +20°C° 0 mm 4 m/s 690 mmHg 26%
    04:00 +19°C° 0 mm 3 m/s 689 mmHg 25%
    05:00 +20°C° 0 mm 4 m/s 690 mmHg 24%
    06:00 +22°C° 0 mm 4 m/s 690 mmHg 23%
    07:00 +23°C° 0 mm 5 m/s 691 mmHg 21%
    08:00 +26°C° 0 mm 7 m/s 691 mmHg 19%
    09:00 +28°C° 0 mm 9 m/s 691 mmHg 17%
    10:00 +31°C° 0 mm 10 m/s 691 mmHg 14%
    11:00 +31°C° 0.1 mm 11 m/s 690 mmHg 14%
    12:00 +32°C° 0.1 mm 12 m/s 689 mmHg 15%
    13:00 +32°C° 0.1 mm 13 m/s 689 mmHg 15%
    14:00 +31°C° 0.1 mm 13 m/s 689 mmHg 16%
    15:00 +29°C° 0.1 mm 13 m/s 688 mmHg 16%
    16:00 +29°C° 0.1 mm 12 m/s 688 mmHg 17%
    17:00 +28°C° 0 mm 11 m/s 688 mmHg 18%
    18:00 +26°C° 0 mm 10 m/s 689 mmHg 19%
    19:00 +24°C° 0 mm 9 m/s 689 mmHg 19%
    20:00 +24°C° 0.1 mm 9 m/s 689 mmHg 19%
    21:00 +24°C° 0.1 mm 10 m/s 689 mmHg 19%
    22:00 +24°C° 0.1 mm 10 m/s 690 mmHg 19%
    23:00 +23°C° 0.1 mm 10 m/s 690 mmHg 19%

    30 Septembre, Dimanche

    Heure Température Précipitation Vent Pression Humidité
    00:00 +23°C° 0.1 mm 9 m/s 690 mmHg 19%
    01:00 +23°C° 0.1 mm 9 m/s 690 mmHg 20%
    02:00 +22°C° 0.1 mm 9 m/s 690 mmHg 20%
    03:00 +21°C° 0.1 mm 9 m/s 690 mmHg 21%
    04:00 +21°C° 0.1 mm 9 m/s 691 mmHg 22%
    05:00 +19°C° 0 mm 9 m/s 692 mmHg 24%
    06:00 +19°C° 0 mm 9 m/s 692 mmHg 26%
    07:00 +18°C° 0 mm 9 m/s 693 mmHg 28%
    08:00 +18°C° 0 mm 9 m/s 693 mmHg 27%
    09:00 +20°C° 0 mm 8 m/s 693 mmHg 27%
    10:00 +20°C° 0 mm 8 m/s 694 mmHg 27%
    11:00 +21°C° 0 mm 8 m/s 694 mmHg 25%
    12:00 +21°C° 0 mm 8 m/s 693 mmHg 24%
    13:00 +22°C° 0 mm 9 m/s 693 mmHg 23%
    14:00 +22°C° 0 mm 9 m/s 693 mmHg 24%
    15:00 +21°C° 0 mm 9 m/s 693 mmHg 25%
    16:00 +21°C° 0 mm 9 m/s 693 mmHg 26%
    17:00 +20°C° 0 mm 8 m/s 694 mmHg 28%
    18:00 +17°C° 0 mm 7 m/s 694 mmHg 30%
    19:00 +16°C° 0 mm 6 m/s 695 mmHg 33%
    20:00 +16°C° 0 mm 5 m/s 695 mmHg 35%
    21:00 +15°C° 0 mm 5 m/s 695 mmHg 38%
    22:00 +14°C° 0 mm 4 m/s 696 mmHg 40%
    23:00 +13°C° 0 mm 5 m/s 696 mmHg 42%
    Voir plus